User: anonymous   Login
Location: Unspecified
(0.0000°N, 0.0000°E)
Time: 15:40:18
(UTC+00:00)
Language:

DANDE - Orbit

View from above orbital plane
View from above orbital plane
View from above satellite
View from above satellite

Ground track
Ground track

The orbit data is extracted from the following two-line orbital elements,

1 39267U 13055C   18109.42793344  .00002028  00000-0  58074-4 0  9996
2 39267  81.0115  73.1247 0706938 110.1243 257.7397 14.18822574234432
Epoch (UTC): 19 April 2018 10:16:13
Eccentricity: 0.0706938
inclination: 81.0115°
perigee height: 320 km
apogee height: 1339 km
right ascension of ascending node: 73.1247°
argument of perigee: 110.1243°
revolutions per day: 14.18822574
mean anomaly at epoch: 257.7397°
orbit number at epoch: 23443

The dashed part of the orbit path shows where the satellite is in the earth's shadow,  

DLR